EZ58KD Weather Reports


time (UTC)temp
F
wind
direction
speed
knots
gust
knots
rain 1hr
in
rain 24hr
in
rain mn
in
humidity
%
barometer
mb
20260507174125 54 126 7.0 8.7 0.00 0.98 0.27 71 1006.9
20260507173125 54 135 8.7 10.4 0.00 0.98 0.27 70 1006.8
20260507172222 54 135 8.7 9.6 0.00 0.98 0.27 70 1006.9
20260507171222 53 135 8.7 9.6 0.00 0.98 0.27 71 1007.0
20260507170224 53 135 7.8 8.7 0.00 0.98 0.27 71 1007.0
20260507165225 53 135 8.7 9.6 0.00 0.98 0.27 70 1007.1
20260507164323 53 135 7.8 8.7 0.00 0.98 0.27 70 1007.2
20260507163323 53 135 7.0 7.8 0.00 0.98 0.27 70 1007.3
20260507161424 54 135 7.0 7.8 0.00 0.98 0.27 64 1007.5
20260507160522 54 135 3.5 4.3 0.00 0.98 0.27 60 1007.5
20260507155524 54 135 2.6 3.5 0.00 0.98 0.27 63 1007.6
20260507151725 52 135 5.2 6.1 0.00 0.98 0.27 69 1008.1
20260507145825 53 135 4.3 4.3 0.00 0.98 0.27 68 1008.1
20260507143825 52 180 3.5 3.5 0.00 0.98 0.27 69 1008.4
20260507142825 53 180 2.6 2.6 0.00 0.98 0.27 69 1008.5
20260507141824 53 180 1.7 2.6 0.00 0.98 0.27 70 1008.6
20260507140823 53 202 2.6 2.6 0.00 0.98 0.27 71 1008.6
20260507135824 51 225 2.6 2.6 0.00 0.98 0.27 71 1008.7
20260507134922 51 231 4.3 5.2 0.00 0.98 0.27 72 1008.6
20260507132023 50 246 4.3 5.2 0.00 0.98 0.27 76 1009.2
20260507131025 50 270 4.3 6.1 0.00 0.98 0.27 77 1008.7
20260507130124 49 238 4.3 6.1 0.00 0.98 0.27 77 1008.9
20260507125222 49 233 5.2 6.1 0.00 0.98 0.27 77 1008.9
20260507123223 48 248 6.1 7.8 0.00 0.98 0.27 80 1008.4
20260507122223 48 257 6.1 7.8 0.00 0.98 0.27 80 1008.4
20260507121222 48 247 5.2 6.1 0.00 0.98 0.27 79 1008.5
20260507120322 48 358 0.9 2.6 0.00 0.98 0.27 80 1008.0
20260507114323 47 247 6.1 7.8 0.00 0.98 0.27 81 1008.6
20260507113324 48 225 6.1 7.0 0.00 0.98 0.27 79 1009.4
20260507112324 48 225 4.3 5.2 0.00 0.98 0.27 81 1009.1
20260507111324 47 225 5.2 7.8 0.00 0.98 0.27 82 1009.5
20260507110323 47 237 8.7 9.6 0.00 0.98 0.27 82 1009.1
20260507105324 48 225 8.7 9.6 0.00 0.98 0.27 81 1009.0
20260507104423 47 225 7.0 7.8 0.00 0.98 0.27 83 1008.9
20260507102523 47 247 7.0 8.7 0.00 0.98 0.27 86 1008.5
20260507100523 48 270 5.2 7.0 0.00 0.98 0.27 87 1007.8
20260507091523 48 247 7.0 7.0 0.00 0.98 0.27 86 1008.0
20260507090523 48 247 7.0 9.6 0.00 0.98 0.27 86 1008.2
20260507085523 48 225 12.2 13.9 0.00 0.98 0.27 86 1008.1
20260507084522 48 247 9.6 11.3 0.00 0.98 0.27 86 1007.6
20260507083523 48 270 9.6 13.0 0.00 0.98 0.27 87 1007.5
20260507082525 48 248 8.7 10.4 0.00 0.98 0.27 87 1007.4
20260507081524 48 247 11.3 12.2 0.00 0.98 0.27 88 1007.3
20260507080523 48 225 12.2 13.9 0.01 0.98 0.27 87 1007.4
20260507075523 48 247 11.3 12.2 0.01 0.98 0.27 88 1007.2
20260507074622 48 267 9.6 10.4 0.01 0.98 0.27 89 1007.2
20260507072722 48 247 8.7 11.3 0.01 0.98 0.27 89 1007.3
20260507071723 49 241 10.4 11.3 0.01 0.98 0.27 89 1007.0
20260507070724 49 248 6.1 7.8 0.00 0.97 0.26 90 1006.8
20260507064724 49 225 5.2 7.0 0.23 0.97 0.26 91 1007.0
20260507063822 49 225 7.0 7.8 0.26 0.97 0.26 91 1006.9
20260507062825 49 225 6.1 7.8 0.26 0.97 0.26 94 1006.7
20260507061824 48 225 5.2 6.1 0.26 0.97 0.26 95 1006.7
20260507060922 48 225 4.3 5.2 0.26 0.97 0.26 95 1006.7
20260507055924 48 225 9.6 11.3 0.23 0.94 0.21 96 1007.1
20260507054924 48 135 8.7 9.6 0.07 0.78 0.05 96 1007.3
20260507053924 48 135 8.7 9.6 0.00 0.71 0.00 96 1006.6
20260507052925 48 133 7.8 10.4 0.00 0.71 0.00 96 1006.6
20260507051026 48 153 5.2 7.0 0.00 0.71 0.00 96 1007.1
20260507050924 48 148 7.8 8.7 0.00 0.71 0.00 96 1007.1
20260507050023 48 135 7.8 9.6 0.00 0.71 0.00 96 1007.1
20260507044122 48 127 11.3 12.2 0.00 0.71 0.00 96 1006.9
20260507043123 48 117 9.6 12.2 0.00 0.71 0.00 95 1006.8
20260507040124 48 132 15.6 19.1 0.01 0.71 0.00 95 1007.4
20260507035217 48 129 12.2 15.6 0.02 0.71 0.71 95 1007.3
20260507034215 48 135 13.0 15.6 0.03 0.71 0.71 94 1007.5
20260507033216 48 124 13.0 15.6 0.05 0.71 0.71 94 1007.4
20260507031315 49 127 19.1 23.5 0.11 0.71 0.71 94 1007.7
20260507030315 49 127 17.4 20.0 0.13 0.70 0.70 94 1007.8
20260507025314 50 133 14.8 17.4 0.19 0.69 0.69 94 1007.9
20260507023316 50 106 18.2 22.6 0.22 0.66 0.66 94 1008.1
20260507022316 50 91 16.5 20.9 0.22 0.63 0.62 94 1008.4
20260507021316 50 91 16.5 19.1 0.22 0.60 0.60 93 1008.4
20260507020415 50 95 15.6 20.9 0.20 0.57 0.57 94 1008.7
20260507015415 50 90 18.2 21.7 0.17 0.51 0.50 93 1008.7
20260507013515 50 90 15.6 20.9 0.13 0.44 0.44 92 1009.2
20260507012515 50 90 15.6 18.2 0.15 0.41 0.41 93 1009.5
20260507011514 50 90 16.5 19.1 0.18 0.39 0.39 93 1009.8
20260507010515 50 105 18.2 20.9 0.21 0.37 0.37 93 1009.9
20260507005516 50 94 13.0 15.6 0.24 0.34 0.34 93 1010.0
20260507003614 50 92 11.3 13.9 0.23 0.31 0.31 91 1010.3
20260507002616 51 106 16.5 20.0 0.19 0.26 0.26 91 1010.2
20260507001615 51 99 15.6 20.0 0.15 0.22 0.21 92 1010.6
20260506235615 51 104 17.4 21.7 0.04 0.10 0.10 89 1010.7
20260506234615 51 108 14.8 18.2 0.03 0.09 0.09 90 1011.1
20260506233616 51 113 15.6 18.2 0.03 0.08 0.08 90 1010.7
20260506232617 51 111 16.5 20.9 0.03 0.07 0.07 89 1010.8
20260506231615 50 92 13.0 16.5 0.04 0.07 0.07 91 1011.0
20260506230615 50 92 13.9 15.6 0.05 0.07 0.07 90 1010.6
20260506225714 50 90 14.8 20.0 0.05 0.06 0.06 91 1010.5
20260506224715 50 90 13.9 17.4 0.05 0.06 0.06 90 1010.9
20260506222714 50 90 15.6 19.1 0.04 0.04 0.04 91 1011.2
20260506221716 50 96 16.5 20.0 0.03 0.03 0.03 91 1011.3
20260506220815 50 92 15.6 20.0 0.02 0.02 0.02 90 1011.8
20260506215816 50 98 14.8 18.2 0.01 0.01 0.01 90 1012.1
20260506211816 49 90 11.3 12.2 0.00 0.00 0.00 89 1011.8
20260506210815 49 102 13.9 16.5 0.00 0.00 0.00 89 1012.3
20260506205815 49 90 15.6 19.1 0.00 0.00 0.00 88 1012.3
20260506204815 50 101 17.4 20.9 0.00 0.00 0.00 88 1012.6
20260506202915 50 128 15.6 19.1 0.00 0.00 0.00 87 1012.1
20260506200916 50 113 16.5 18.2 0.00 0.00 0.00 86 1012.4
20260506195916 51 94 19.1 24.3 0.00 0.00 0.00 87 1011.7
20260506194915 51 95 17.4 20.9 0.00 0.00 0.00 86 1011.9
20260506193915 51 97 17.4 20.9 0.00 0.00 0.00 86 1011.9
20260506192916 51 93 17.4 20.9 0.00 0.00 0.00 85 1011.9
20260506191918 51 90 18.2 20.9 0.00 0.00 0.00 84 1012.2
20260506185915 51 92 16.5 19.1 0.00 0.00 0.00 86 1012.4
20260506184915 51 92 14.8 20.0 0.00 0.00 0.00 86 1012.4
20260506181915 51 90 17.4 22.6 0.00 0.00 0.00 86 1012.7
20260506180915 50 90 13.0 15.6 0.00 0.00 0.00 87 1013.0
20260506175917 50 90 14.8 18.2 0.00 0.00 0.00 86 1012.9
20260506174916 51 90 13.0 17.4 0.00 0.00 0.00 87 1013.0